Location: La Chapelle
(48.3135°N, 1.3085°W)
Time: 23:09:26
(UTC+00:00)

Cosmos 1844 Rocket - Pass Details

Date: 03 March 2021
Orbit: 826 x 843 km, 71.0° (Epoch: 20 April)

Event Time Altitude Azimuth Distance (km) Brightness Sun altitude
Rises 20:05:06 0° 326° (NW) 3,375 6.6 -22.6°
Reaches altitude 10° 20:07:40 10° 319° (NW) 2,437 5.9 -23.0°
Maximum altitude 20:12:46 38° 253° (WSW) 1,241 3.9 -23.8°
Drops below altitude 10° 20:17:51 10° 186° (S) 2,424 4.9 -24.6°
Enters shadow 20:18:02 - 186° (S) 2,489 5.0 -24.7°
